Location: *
(44.3925°N, 5.4708°E)
Time: 02:07:27
(UTC+00:00)

Cosmos 1378 - Pass Details

Date: 18 September 2019
Orbit: 493 x 503 km, 82.5° (Epoch: 20 October)

Event Time Altitude Azimuth Distance (km) Brightness Sun altitude
Rises 18:19:44 0° 350° (N) 2,613 7.0 -7.2°
Reaches altitude 10° 18:21:52 10° 350° (N) 1,723 6.1 -7.6°
Maximum altitude 18:25:39 86° 263° (W) 510 3.2 -8.2°
Drops below altitude 10° 18:29:23 10° 174° (S) 1,704 5.7 -8.9°
Sets 18:31:29 0° 174° (S) 2,581 6.6 -9.3°
